Showing default

SATORO-T3, 64589

Orbit data source: Space-Track

SATORO-T3, 64589 is a payload satellite owned by Satoro (SG) in SSO that was launched on Mon, 23 Jun 2025 UTC via an FALCON 9 launch vehicle from the Air Force Western Test Range (AFWTR). Payload-class satellites include a variety of spacecraft equipped with specific instruments for various scientific and technological missions. These include communications satellites like Starlink; space stations such as the ISS; scientific satellites like the Hubble; Earth observation satellites from companies like Planet Labs, Umbra, and HawkEye 360; GPS; miniature CubeSats for education and research; and military/defense satellites.

Loading next visibility...
Identifier
64589, 2025-135BP
Orbit
SSO
Country
Flag of SGSG / SING
Related business
Manufacturer
Satoro
Mission
Operational Commercial Technology
Bus & Motor
CUBESAT 3U, Unknown motor
Mass
4 kg wet, 4 kg dry
Launch date (UTC)
2025-06-23 (1 year ago)
Launch vehicle
FALCON 9
Launch site
Air Force Western Test Range (AFWTR)
Object type
Payload
Rocket body
Debris
Shape & HBR
Box, 0.1 m
Radar Cross Section
0.035 m², Medium (>0.1 m² and < 1m²)

Expand to show TLE details & history
Last TLE update: 12 hours ago

TLE from 12 hours ago
0 SATORO-T3
1 64589U 25135BP  26197.82517757  .00000604  00000-0  61349-4 0  9992
2 64589  97.7740 312.0547 0003896 219.7413 140.3522 14.94439412 58330
Epoch: 2026-07-16T19:48Z
TLE epoch observation values (Epoch: 2026-07-16T19:48:15.342Z)
Latitude
-0.00002°
Longitude
80.3297°
Altitude
589.248 km
Speed
7.564 km/s
True Right ascension
20h 48m 13s
True Declination
0° 00' 00"
Sunlit
Object was in full shadow at epoch
Visualization orbit readout
Latitude
Unknown
Longitude
Unknown
Altitude
Unknown
Speed
Unknown
Apparent Right ascension
Unknown
Apparent Declination
Unknown
Sunlit
N/A
Visualization observer readout
Local Sidereal Time
20:56:43
Azimuth
Unknown
Elevation
Unknown
Doppler factor
Unknown
Orbital elements
Apogee altitude
583.841 km
Perigee altitude
578.418 km
Semi-major axis
6,959.266 km
Eccentricity
0.00039
Inclination
97.774°
RAAN
312.0547°
Arg. of periapsis
219.7413°
True anomaly
140.38068°
Mean anomaly
140.3522°
Eccentric anomaly
140.36644°
Mean motion
3.73851 °/min
Orbital period
96.3 mins
BSTAR
0.000061349
Loading maneuver chart data...
Computing Atmospheric mass density...
Loading historical data...
Loading historical data...
Loading historical data...
Loading historical data...
Loading historical data...
Loading historical data...
Loading historical data...

Documentation

Showing up to 5 results
|